TimeAKDT,TemperatureF,Dew PointF,Humidity,Sea Level PressureIn,VisibilityMPH,Wind Direction,Wind SpeedMPH,Gust SpeedMPH,PrecipitationIn,Events,Conditions,WindDirDegrees,DateUTC
12:16 AM,6.8,1.4,79,29.11,10.0,ENE,4.6,-,N/A,,Clear,70,2014-03-09 09:16:00
12:36 AM,6.8,-0.4,72,29.11,10.0,ENE,3.5,-,N/A,,Clear,60,2014-03-09 09:36:00
12:56 AM,5.0,-4.0,66,29.11,10.0,ENE,4.6,-,N/A,,Clear,70,2014-03-09 09:56:00
1:16 AM,6.8,1.4,79,29.12,10.0,ENE,4.6,-,N/A,,Clear,70,2014-03-09 10:16:00
1:36 AM,6.8,-2.2,67,29.13,10.0,East,4.6,-,N/A,,Clear,90,2014-03-09 10:36:00
1:56 AM,5.0,-0.4,78,29.13,10.0,East,5.8,-,N/A,,Clear,80,2014-03-09 10:56:00
3:16 AM,5.0,-2.2,72,29.13,10.0,ENE,3.5,-,N/A,,Clear,70,2014-03-09 11:16:00
3:36 AM,3.2,-2.2,78,29.13,10.0,ENE,4.6,-,N/A,,Clear,60,2014-03-09 11:36:00
3:56 AM,1.4,-5.8,72,29.14,10.0,ENE,5.8,-,N/A,,Clear,70,2014-03-09 11:56:00
4:36 AM,3.2,-2.2,78,29.14,10.0,East,5.8,-,N/A,,Clear,80,2014-03-09 12:36:00
4:56 AM,3.2,-2.2,78,29.14,10.0,East,4.6,-,N/A,,Clear,80,2014-03-09 12:56:00
5:16 AM,3.2,-4.0,72,29.15,10.0,ENE,5.8,-,N/A,,Clear,70,2014-03-09 13:16:00
5:36 AM,1.4,-2.2,85,29.15,10.0,ENE,4.6,-,N/A,,Clear,70,2014-03-09 13:36:00
5:56 AM,1.4,-5.8,72,29.15,10.0,East,5.8,-,N/A,,Clear,80,2014-03-09 13:56:00
6:16 AM,1.4,-4.0,78,29.15,10.0,East,5.8,-,N/A,,Clear,80,2014-03-09 14:16:00
6:36 AM,1.4,-4.0,78,29.15,10.0,East,4.6,-,N/A,,Clear,80,2014-03-09 14:36:00
6:56 AM,1.4,-4.0,78,29.16,10.0,ENE,4.6,-,N/A,,Clear,60,2014-03-09 14:56:00
7:16 AM,1.4,-4.0,78,29.17,10.0,East,4.6,-,N/A,,Clear,80,2014-03-09 15:16:00
7:36 AM,-0.4,-5.8,78,29.17,10.0,East,4.6,-,N/A,,Clear,90,2014-03-09 15:36:00
7:56 AM,-0.4,-4.0,85,29.18,10.0,East,5.8,-,N/A,,Clear,80,2014-03-09 15:56:00
8:16 AM,1.4,-4.0,78,29.19,10.0,East,5.8,-,N/A,,Clear,80,2014-03-09 16:16:00
8:36 AM,-0.4,-4.0,85,29.20,10.0,East,4.6,-,N/A,,Clear,80,2014-03-09 16:36:00
8:56 AM,-0.4,-5.8,78,29.20,10.0,East,4.6,-,N/A,,Clear,80,2014-03-09 16:56:00
9:16 AM,-0.4,-5.8,78,29.21,10.0,East,5.8,-,N/A,,Clear,90,2014-03-09 17:16:00
9:36 AM,1.4,-4.0,78,29.22,10.0,East,5.8,-,N/A,,Clear,80,2014-03-09 17:36:00
9:56 AM,1.4,-2.2,85,29.22,10.0,East,5.8,-,N/A,,Clear,80,2014-03-09 17:56:00
10:16 AM,3.2,-0.4,85,29.23,10.0,East,3.5,-,N/A,,Clear,80,2014-03-09 18:16:00
10:36 AM,6.8,-0.4,72,29.24,10.0,Calm,Calm,-,N/A,,Clear,0,2014-03-09 18:36:00
10:56 AM,8.6,1.4,73,29.24,10.0,East,4.6,-,N/A,,Clear,80,2014-03-09 18:56:00
11:16 AM,10.4,3.2,73,29.25,10.0,East,3.5,-,N/A,,Clear,90,2014-03-09 19:16:00
11:36 AM,14.0,3.2,62,29.25,10.0,Calm,Calm,-,N/A,,Clear,0,2014-03-09 19:36:00
11:56 AM,15.8,5.0,62,29.26,10.0,Calm,Calm,-,N/A,,Clear,0,2014-03-09 19:56:00
12:16 PM,17.6,5.0,58,29.26,10.0,Calm,Calm,-,N/A,,Clear,0,2014-03-09 20:16:00
12:36 PM,19.4,5.0,54,29.27,10.0,Calm,Calm,-,N/A,,Clear,0,2014-03-09 20:36:00
12:56 PM,21.2,6.8,54,29.27,10.0,NE,5.8,-,N/A,,Clear,50,2014-03-09 20:56:00
1:16 PM,21.2,5.0,50,29.28,10.0,NE,4.6,-,N/A,,Clear,40,2014-03-09 21:16:00
1:36 PM,23.0,3.2,43,29.28,10.0,NNE,5.8,-,N/A,,Clear,20,2014-03-09 21:36:00
1:56 PM,24.8,3.2,40,29.29,10.0,NE,6.9,-,N/A,,Clear,50,2014-03-09 21:56:00
2:16 PM,24.8,3.2,40,29.29,10.0,NE,5.8,-,N/A,,Clear,50,2014-03-09 22:16:00
2:36 PM,24.8,3.2,40,29.29,10.0,NNE,6.9,-,N/A,,Clear,20,2014-03-09 22:36:00
2:56 PM,24.8,3.2,40,29.29,10.0,North,5.8,-,N/A,,Clear,360,2014-03-09 22:56:00
3:16 PM,24.8,3.2,40,29.30,10.0,North,6.9,-,N/A,,Clear,350,2014-03-09 23:16:00
3:36 PM,26.6,3.2,37,29.30,10.0,NNW,6.9,-,N/A,,Clear,340,2014-03-09 23:36:00
3:56 PM,26.6,3.2,37,29.31,10.0,NNW,5.8,-,N/A,,Clear,340,2014-03-09 23:56:00
4:16 PM,26.6,3.2,37,29.31,10.0,North,5.8,-,N/A,,Clear,360,2014-03-10 00:16:00
4:36 PM,26.6,3.2,37,29.32,10.0,NNE,6.9,-,N/A,,Clear,30,2014-03-10 00:36:00
4:56 PM,26.6,3.2,37,29.32,10.0,NNE,6.9,-,N/A,,Clear,20,2014-03-10 00:56:00
5:16 PM,26.6,3.2,37,29.32,10.0,North,5.8,-,N/A,,Clear,10,2014-03-10 01:16:00
5:36 PM,26.6,3.2,37,29.33,10.0,North,8.1,-,N/A,,Clear,350,2014-03-10 01:36:00
5:56 PM,26.6,3.2,37,29.33,10.0,North,8.1,-,N/A,,Clear,360,2014-03-10 01:56:00
6:16 PM,26.6,3.2,37,29.34,10.0,NNW,6.9,-,N/A,,Clear,340,2014-03-10 02:16:00
6:36 PM,24.8,3.2,40,29.34,10.0,North,3.5,-,N/A,,Clear,360,2014-03-10 02:36:00
6:56 PM,24.8,3.2,40,29.35,10.0,North,4.6,-,N/A,,Clear,10,2014-03-10 02:56:00
7:16 PM,24.8,3.2,40,29.36,10.0,North,3.5,-,N/A,,Clear,10,2014-03-10 03:16:00
7:36 PM,24.8,3.2,40,29.36,10.0,North,4.6,-,N/A,,Clear,10,2014-03-10 03:36:00
7:56 PM,23.0,3.2,43,29.37,10.0,North,3.5,-,N/A,,Clear,10,2014-03-10 03:56:00
8:16 PM,23.0,3.2,43,29.38,10.0,Calm,Calm,-,N/A,,Clear,0,2014-03-10 04:16:00
8:36 PM,21.2,3.2,46,29.38,10.0,NNE,3.5,-,N/A,,Clear,30,2014-03-10 04:36:00
8:56 PM,19.4,1.4,46,29.39,10.0,Calm,Calm,-,N/A,,Clear,0,2014-03-10 04:56:00
9:16 PM,19.4,3.2,49,29.40,10.0,Calm,Calm,-,N/A,,Clear,0,2014-03-10 05:16:00
9:36 PM,17.6,1.4,49,29.40,10.0,Calm,Calm,-,N/A,,Clear,0,2014-03-10 05:36:00
9:56 PM,15.8,1.4,53,29.41,10.0,Calm,Calm,-,N/A,,Clear,0,2014-03-10 05:56:00
10:16 PM,14.0,1.4,57,29.41,10.0,Calm,Calm,-,N/A,,Clear,0,2014-03-10 06:16:00
10:36 PM,12.2,1.4,62,29.43,10.0,Calm,Calm,-,N/A,,Clear,0,2014-03-10 06:36:00
10:56 PM,12.2,1.4,62,29.43,10.0,Calm,Calm,-,N/A,,Clear,0,2014-03-10 06:56:00
11:16 PM,12.2,1.4,62,29.44,10.0,Calm,Calm,-,N/A,,Clear,0,2014-03-10 07:16:00
11:36 PM,10.4,1.4,67,29.45,10.0,Calm,Calm,-,N/A,,Clear,0,2014-03-10 07:36:00
11:56 PM,8.6,-0.4,67,29.46,10.0,Calm,Calm,-,N/A,,Clear,0,2014-03-10 07:56:00
12:16 AM,6.8,-2.2,67,29.46,10.0,Calm,Calm,-,N/A,,Clear,0,2014-03-10 08:16:00
12:36 AM,10.4,3.2,73,29.46,10.0,NE,3.5,-,N/A,,Clear,40,2014-03-10 08:36:00
12:56 AM,8.6,-0.4,67,29.46,10.0,East,3.5,-,N/A,,Clear,90,2014-03-10 08:56:00